Weather Roundup
Issued by NWS

Home | Current Version | Previous Version | Graphics & Text | Print | Product List | Glossary Off
Versions: 1 2 3 4 5 6 7 8 9 10 11 12 13 14 15 16 17 18 19 20 21 22 23 24 25 26 27 28 29 30 31 32 33 34 35 36 37 38 39 40 41 42 43 44 45 46 47 48 49 50

000
NZUS93 KARX 232259
HRRWXR

CURRENT HOURLY OBSERVATIONS ACROSS
MUCH OF THE UPPER MISSISSIPPI VALLEY
NATIONAL WEATHER SERVICE LA CROSSE WI
600 PM CDT THU OCT 23 2014


...SOUTHEAST MINNESOTA...


CITY           SKY/WX    TMP DP  RH WIND       PRES   REMARKS
ROCHESTER      CLEAR     54  49  83 SE3       30.00F
ROCHESTER/MAYO FAIR      56  50  79 SE6       30.00R
WINONA         CLOUDY    54  52  94 S3        30.01F
AUSTIN         CLEAR     57  52  82 SE3       29.99R
ALBERT LEA     CLEAR     64  46  52 CALM      29.98R
DODGE CENTER   CLEAR     55  52  88 SE7       29.99R
PRESTON        PTCLDY    50  48  93 SE5       30.01S FOG
OWATONNA       CLEAR     57  39  51 CALM      29.97S
FARIBAULT      CLEAR     55  43  62 CALM      29.97R
$$

...ELSEWHERE IN MINNESOTA...


CITY           SKY/WX    TMP DP  RH WIND       PRES   REMARKS
MINNEAPOLIS    CLEAR     66  44  45 CALM      29.96R
INTNL FALLS    CLEAR     56  36  47 SW6       29.84R
DULUTH         PTCLDY    53  47  79 S5        29.93S
RED WING       CLEAR     54  50  87 SE5       29.98R
REDWOOD FALLS  CLEAR     68  35  29 CALM      29.94S
MANKATO        CLEAR     66  37  34 CALM      29.96S
WORTHINGTON    CLEAR     63  43  48 S6        29.98S
FAIRMONT       CLEAR     66  32  28 W5        29.97S
$$

...SOUTHWEST WISCONSIN...


CITY           SKY/WX    TMP DP  RH WIND       PRES   REMARKS
LA CROSSE      CLOUDY    50  48  93 SE6       30.02F FOG
PRAIRIE DU CHI CLOUDY    51  48  90 CALM      30.04R
BOSCOBEL       CLOUDY    51  48  89 CALM      30.05R FOG
LONE ROCK      CLOUDY    53  48  83 CALM      30.04S HAZE
PLATTEVILLE    CLOUDY    50  49  95 S3        30.04S
FORT MC COY    CLOUDY    47  46  97 CALM      30.04R FOG
VIROQUA        CLOUDY    47  47 100 SW3       30.03S VSB<1/4
WIS DELLS      CLOUDY    47  46  93 CALM      30.03S FOG
$$

...ELSEWHERE IN WISCONSIN...


CITY           SKY/WX    TMP DP  RH WIND       PRES   REMARKS
MILWAUKEE      LGT RAIN  52  47  83 CALM      30.06S
MADISON        CLOUDY    52  48  86 CALM      30.04S
GREEN BAY      CLOUDY    49  48  97 CALM      30.05S FOG
EAU CLAIRE     NOT AVBL
BLACK RVR FLS  CLOUDY    48  48 100 CALM      30.02R FOG
MEDFORD        FOG       46  46  99 S3        30.00S VSB 1/4
WAUSAU         CLOUDY    46  45  96 S5        30.01S FOG
WIS RAPIDS     CLOUDY    47  46  97 S5        30.03F FOG
MARSHFIELD     FOG       47  46  97 S5        30.01S VSB 1/2
RICE LAKE      CLOUDY    53  49  88 E5        30.01R
$$

...NORTHEAST IOWA...


CITY           SKY/WX    TMP DP  RH WIND       PRES   REMARKS
DECORAH        FOG       52  52 100 CALM      30.02S VSB 1/2
MASON CITY     CLEAR     60  45  57 W3        30.00S
CHARLES CITY   CLEAR     55  52  88 SE6       30.01S
OELWEIN        CLOUDY    54  52  94 CALM      30.03S
$$

...ELSEWHERE IN IOWA...


CITY           SKY/WX    TMP DP  RH WIND       PRES   REMARKS
DES MOINES     CLEAR     69  48  47 CALM      30.00S
IOWA CITY      CLOUDY    56  55  97 SE3       30.04S
FORT DODGE     CLEAR     61  45  55 CALM      30.00S
$$

...NORTHERN ILLINOIS...


CITY           SKY/WX    TMP DP  RH WIND       PRES   REMARKS
CHICAGO-OHARE  CLOUDY    56  42  59 S6        30.06F
CHICAGO-MIDWAY CLOUDY    59  41  51 S9        30.06F
MOLINE         CLOUDY    59  47  64 S6        30.04S
ROCKFORD       LGT RAIN  53  47  79 CALM      30.08R
PEORIA         CLOUDY    59  44  57 S7        30.06F
$$

NOTE: "FAIR" INDICATES FEW OR NO CLOUDS BELOW 12,000 FEET WITH NO
SIGNIFICANT WEATHER AND/OR OBSTRUCTIONS TO VISIBILITY. WIND
SPEEDS ARE IN MILES-PER-HOUR.



USA.gov is the U.S. government's official web portal to all federal, state and local government web resources and services.